Location: Westgate on Sea
(51.3764°N, 1.3417°E)
Time: 23:18:24
(UTC+00:00)

Daily predictions for brighter satellites

Satellite Brightness Start Highest point End
(mag) Time Altitude Azimuth Time Altitude Azimuth Time Altitude Azimuth
STARLINK-1216 4.0 20:45:23 10° W 20:49:31 69° N 20:53:39 10° E
Nadezhda 4 Rocket 4.0 20:44:56 10° S 20:51:03 80° E 20:57:12 10° NNE
STARLINK-1205 3.7 20:48:10 10° WNW 20:52:20 86° NNE 20:56:30 10° ESE
STARLINK-1237 4.0 20:50:21 10° W 20:54:30 69° N 20:58:38 10° E
Resurs 01 Rocket 2.8 20:50:54 10° S 20:55:09 42° W 20:59:24 10° NNW
USA 245 2.1 20:53:22 10° SSE 20:55:52 81° W 20:58:09 10° NNW
STARLINK-1218 3.7 20:53:10 10° WNW 20:57:19 88° N 21:01:30 10° ESE
STARLINK-52 3.8 20:55:52 10° SSW 20:58:41 28° SE 21:01:30 10° E
STARLINK-1202 4.0 20:55:22 10° W 20:59:30 69° N 21:03:39 10° E
ATLAS CENTAUR R/B 3.2 20:59:35 10° NW 21:00:52 16° N 21:02:10 10° NE
Cosmos 1544 Rocket 4.2 20:57:58 10° N 21:02:07 41° ENE 21:06:15 10° SE
CENTAUR R/B 3.3 20:54:12 10° NW 21:02:07 82° SW 21:10:53 10° SE
STARLINK-1254 3.6 20:58:09 10° WNW 21:02:19 89° SW 21:06:29 10° ESE
SPOT 5 3.4 20:58:25 10° SSE 21:03:39 59° ENE 21:08:55 10° N
Spot 2 Rocket 3.7 20:58:59 10° S 21:04:01 72° WSW 21:09:06 10° NNW
STARLINK-1203 4.0 21:00:07 10° W 21:04:16 69° N 21:08:25 10° E
Cosmos 1378 3.1 21:00:34 10° S 21:04:17 87° WNW 21:08:01 10° N
BREEZE-M DEB 3.4 21:02:54 10° SSW 21:05:14 31° SE 21:10:08 10° E
Cosmos 1066 Rocket 4.5 21:00:40 10° SSW 21:06:00 70° WNW 21:11:23 10° N
STARLINK-1231 3.6 21:03:08 10° WNW 21:07:17 86° SSW 21:11:27 10° ESE
Terra 2.4 21:03:01 10° SE 21:07:33 46° ENE 21:12:06 10° N
STARLINK-1246 4.0 21:05:20 10° W 21:09:29 69° N 21:13:38 10° E
USA 215 4.1 21:03:30 10° ENE 21:09:51 55° N 21:16:11 10° WNW
Cosmos 1378 Rocket 4.4 21:06:22 10° SSW 21:10:39 52° WNW 21:14:57 10° N
ATLAS 3B R/B 3.0 21:03:56 10° NW 21:10:41 69° NE 21:17:39 10° SE
Cosmos 1726 4.0 21:08:50 10° NNE 21:11:35 19° ENE 21:14:20 10° ESE
STARLINK-1232 3.6 21:08:08 10° WNW 21:12:18 83° SSW 21:16:27 10° ESE
SAR-Lupe-2 3.5 21:09:18 10° NNE 21:12:55 77° ESE 21:16:31 10° S
Cosmos 1805 4.0 21:09:31 10° NNW 21:13:21 52° W 21:17:09 10° S
STARLINK-1224 4.0 21:10:19 10° W 21:14:28 69° N 21:18:36 10° E
Cosmos 1503 Rocket 4.2 21:11:08 10° NNW 21:16:28 68° ENE 21:21:37 11° SE
NOSS 2-2 (D) 4.0 21:12:53 10° WSW 21:16:28 58° NW 21:20:44 10° NE
STARLINK-1208 3.6 21:13:07 10° WNW 21:17:16 80° SSW 21:21:25 10° ESE
STARLINK-1444 2.1 21:16:32 10° SW 21:18:34 45° SSE 21:20:38 10° E
STARLINK-1452 2.1 21:17:11 10° SW 21:19:13 45° SSE 21:21:15 10° E
STARLINK-1225 3.9 21:15:19 10° W 21:19:28 70° N 21:23:36 10° E
Cosmos 1470 3.1 21:15:51 10° N 21:19:39 51° ENE 21:23:07 12° SSE
APEX 4.2 21:13:55 10° SSW 21:20:00 60° ESE 21:24:54 10° NE
STARLINK-1392 2.0 21:18:06 10° SW 21:20:05 45° SSE 21:22:05 10° E
STARLINK-1399 2.0 21:18:07 10° SW 21:20:06 45° SSE 21:22:07 10° E
STARLINK-1393 2.0 21:18:10 10° SW 21:20:08 45° SSE 21:22:08 10° E
STARLINK-1394 2.0 21:18:11 10° SW 21:20:09 45° SSE 21:22:10 10° E
STARLINK-1397 2.0 21:18:13 10° SW 21:20:12 45° SSE 21:22:13 10° E
STARLINK-1395 2.0 21:18:15 10° SW 21:20:12 44° SSE 21:22:11 10° E
STARLINK-1396 2.0 21:18:14 10° SW 21:20:13 45° SSE 21:22:14 10° E
STARLINK-1414 2.0 21:18:15 10° SW 21:20:13 45° SSE 21:22:13 10° E
STARLINK-1408 2.0 21:18:18 10° SW 21:20:16 45° SSE 21:22:16 10° E
STARLINK-1404 2.0 21:18:18 10° SW 21:20:17 45° SSE 21:22:18 10° E
STARLINK-1416 2.0 21:18:20 10° SW 21:20:18 45° SSE 21:22:18 10° E
STARLINK-1415 2.0 21:18:19 10° SW 21:20:19 45° SSE 21:22:20 10° E
STARLINK-1450 2.0 21:18:20 10° SW 21:20:20 45° SSE 21:22:21 10° E
STARLINK-1406 2.0 21:18:24 10° SW 21:20:22 45° SSE 21:22:22 10° E
STARLINK-1401 2.0 21:18:22 10° SW 21:20:22 45° SSE 21:22:23 10° E
STARLINK-1417 2.0 21:18:26 10° SW 21:20:25 45° SSE 21:22:27 10° E
STARLINK-1402 2.0 21:18:27 10° SW 21:20:26 45° SSE 21:22:28 10° E
STARLINK-1413 2.0 21:18:27 10° SW 21:20:26 45° SSE 21:22:28 10° E
STARLINK-1419 2.0 21:18:28 10° SW 21:20:26 45° SSE 21:22:28 10° E
STARLINK-1422 2.0 21:18:33 10° SW 21:20:32 46° SSE 21:22:34 10° E
STARLINK-1453 2.0 21:18:33 10° SW 21:20:33 46° SSE 21:22:34 10° E
STARLINK-1420 2.0 21:18:36 10° SW 21:20:35 46° SSE 21:22:37 10° E
STARLINK-1398 2.0 21:18:33 10° SW 21:20:35 46° SSE 21:22:36 10° E
STARLINK-1440 2.0 21:18:36 10° SW 21:20:36 46° SSE 21:22:37 10° E
STARLINK-1436 (VISORSAT) 2.0 21:18:36 10° SW 21:20:36 46° SSE 21:22:39 10° E
STARLINK-1460 2.0 21:18:38 10° SW 21:20:38 46° SSE 21:22:40 10° E
STARLINK-1410 2.0 21:18:43 10° SW 21:20:43 46° SSE 21:22:44 10° E
STARLINK-1423 2.0 21:18:44 10° SW 21:20:43 46° SSE 21:22:44 10° E
STARLINK-1400 2.0 21:18:44 10° SW 21:20:43 46° SSE 21:22:45 10° E
STARLINK-1421 2.0 21:18:45 10° SW 21:20:43 46° SSE 21:22:44 10° E
STARLINK-1454 2.0 21:18:44 10° SW 21:20:44 46° SSE 21:22:46 10° E
STARLINK-1458 2.0 21:18:47 10° SW 21:20:45 46° SSE 21:22:47 10° E
STARLINK-1445 2.0 21:18:48 10° SW 21:20:48 46° SSE 21:22:50 10° E
STARLINK-1446 2.0 21:18:51 10° SW 21:20:50 46° SSE 21:22:53 10° E
STARLINK-1407 2.0 21:18:51 10° SW 21:20:51 46° SSE 21:22:53 10° E
STARLINK-1405 2.0 21:18:55 10° SW 21:20:52 45° SSE 21:22:51 10° E
STARLINK-1370 2.0 21:18:54 10° SW 21:20:54 46° SSE 21:22:55 10° E
STARLINK-1456 2.0 21:18:55 10° SW 21:20:54 46° SSE 21:22:55 10° E
STARLINK-1457 2.0 21:18:55 10° SW 21:20:54 46° SSE 21:22:55 10° E
STARLINK-1451 2.0 21:18:55 10° SW 21:20:54 46° SSE 21:22:55 10° E
STARLINK-1409 2.0 21:18:56 10° SW 21:20:55 46° SSE 21:22:56 10° E
STARLINK-1439 2.0 21:18:58 10° SW 21:20:55 45° SSE 21:22:54 10° E
STARLINK-1437 2.0 21:18:56 10° SW 21:20:56 46° SSE 21:22:57 10° E
STARLINK-1447 2.0 21:18:56 10° SW 21:20:56 46° SSE 21:22:57 10° E
STARLINK-1455 2.0 21:18:56 10° SW 21:20:56 46° SSE 21:22:58 10° E
STARLINK-1441 2.0 21:18:58 10° SW 21:20:58 46° SSE 21:23:00 10° E
STARLINK-1443 2.0 21:19:00 10° SW 21:21:00 46° SSE 21:23:02 10° E
STARLINK-1351 2.0 21:19:02 10° SW 21:21:02 46° SSE 21:23:04 10° E
STARLINK-1418 2.0 21:19:03 10° SW 21:21:02 46° SSE 21:23:04 10° E
STARLINK-1442 2.0 21:19:03 10° SW 21:21:03 46° SSE 21:23:05 10° E
STARLINK-1403 2.0 21:19:03 10° SW 21:21:03 46° SSE 21:23:05 10° E
STARLINK-1434 2.0 21:19:03 10° SW 21:21:03 46° SSE 21:23:06 10° E
STARLINK-1448 2.0 21:19:04 10° SW 21:21:05 46° SSE 21:23:07 10° E
STARLINK-1433 2.0 21:19:05 10° SW 21:21:06 46° SSE 21:23:08 10° E
STARLINK-1449 2.0 21:19:07 10° SW 21:21:08 46° SSE 21:23:10 10° E
STARLINK-1438 2.0 21:19:11 10° SW 21:21:10 46° SSE 21:23:12 10° E
STARLINK-1411 2.0 21:19:17 10° SW 21:21:17 46° SSE 21:23:19 10° E
STARLINK-1412 2.0 21:19:17 10° SW 21:21:17 46° SSE 21:23:20 10° E
BREEZE-M DEB (TANK) 4.1 21:04:17 10° WSW 21:21:49 62° SSE 21:26:11 10° E
STARLINK-1271 3.6 21:18:05 10° WNW 21:22:14 77° SSW 21:26:23 10° ESE
Cosmos 1733 3.7 21:19:52 10° NNW 21:23:38 58° W 21:27:20 10° S
STARLINK-1230 3.9 21:20:17 10° W 21:24:26 71° N 21:28:35 10° E
FALCON 9 DEB 3.8 21:22:08 10° SSW 21:25:13 31° SE 21:28:19 10° E
NOSS 3-2 (C) 4.4 21:18:11 10° NW 21:25:29 60° SW 21:33:29 11° SSE
STARLINK-60 2.8 21:23:23 10° WSW 21:26:33 75° SSE 21:29:44 10° ENE
BREEZE-M DEB (TANK) 2.9 21:22:14 10° W 21:26:45 69° S 21:30:16 10° E
STARLINK-1154 3.6 21:23:03 10° WNW 21:27:11 74° SSW 21:31:20 10° ESE
STARLINK-1235 4.5 21:24:40 10° W 21:27:39 27° SW 21:30:07 13° SSE
Cosmos 1340 Rocket 4.0 21:25:13 10° N 21:28:53 31° ENE 21:32:10 12° SE
STARLINK-1243 3.9 21:25:18 10° W 21:29:27 72° N 21:33:36 10° E
SL-27 R/B 3.8 21:26:44 10° NW 21:29:59 33° WSW 21:33:10 10° S
COSMOS 2455 3.4 21:25:22 10° S 21:30:47 36° ESE 21:36:14 10° NE
Cosmos 1302 Rocket 4.2 21:26:01 10° SSW 21:31:19 78° WNW 21:36:39 10° NNE
STARLINK-1197 3.6 21:28:02 10° WNW 21:32:10 70° SSW 21:36:10 11° ESE
Cosmos 1842 3.2 21:29:33 10° S 21:33:26 89° W 21:37:21 10° N
COSMOS 2487 2.8 21:30:05 10° NNW 21:33:30 51° ENE 21:36:14 15° SE
Cosmos 1025 Rocket 3.7 21:30:38 12° SSE 21:34:11 38° E 21:38:13 10° NNE
STARLINK-1236 3.9 21:30:16 10° WNW 21:34:25 73° N 21:38:34 10° E
STARLINK-1212 4.4 21:33:19 10° W 21:35:55 24° SW 21:37:48 14° S
SPOT 1/Viking Rocket 4.1 21:31:13 10° S 21:36:15 53° W 21:41:19 10° NNW
STARLINK-1105 4.4 21:34:00 10° W 21:36:38 24° SW 21:38:31 15° S
Cosmos 1975 Rocket 3.2 21:32:25 10° SSW 21:36:50 76° WNW 21:41:14 10° N
NOSS 3-4 (A) 3.5 21:31:10 10° SSW 21:36:55 53° SE 21:43:06 10° NE
NOSS 3-4 (C) 3.6 21:31:16 10° SSW 21:37:02 53° SE 21:43:12 10° NE
STARLINK-1198 3.6 21:33:01 10° WNW 21:37:09 67° SSW 21:40:57 12° ESE
STARLINK-1247 4.4 21:35:06 10° W 21:37:44 24° SW 21:39:38 15° S
STARLINK-1227 4.4 21:35:44 10° W 21:38:22 24° SW 21:40:12 15° S
Cosmos 1354 Rocket 4.1 21:33:37 10° NNW 21:38:58 87° ENE 21:43:37 14° SSE
Cosmos 2263 4.1 21:33:30 10° SSW 21:39:04 74° ESE 21:44:43 10° NNE
STARLINK-1226 4.5 21:36:54 10° W 21:39:30 23° SW 21:41:19 15° S
STARLINK-1215 4.5 21:37:58 10° W 21:40:35 23° SW 21:42:23 15° S
Cosmos 292 Rocket 3.8 21:36:33 10° SSW 21:41:24 88° ESE 21:46:19 10° NNE
MTI 4.5 21:38:40 10° NNE 21:41:37 35° E 21:43:39 17° SSE
Cosmos 1092 Rocket 4.2 21:35:58 10° SSW 21:42:05 72° WNW 21:48:17 10° N
STARLINK-1199 3.7 21:38:00 10° WNW 21:42:06 64° SSW 21:45:43 13° SE
EXPRESS MD2 3.7 21:39:50 10° WSW 21:43:20 75° S 21:50:24 10° E
ATLAS 5 CENTAUR R/B 3.0 21:39:24 10° S 21:43:32 22° SE 21:45:44 10° E
ERBS 4.0 21:40:43 10° WNW 21:43:46 33° N 21:46:50 10° ENE
STARLINK-1269 3.8 21:40:15 10° WNW 21:44:24 75° N 21:48:33 10° E
Cosmos 1953 2.9 21:40:34 10° N 21:44:24 44° ENE 21:47:21 16° SE
RESURS DK-1 3.9 21:42:39 15° SE 21:44:34 20° ESE 21:47:35 10° ENE
Cosmos 2297 Rocket 3.8 21:39:56 10° NNW 21:44:43 27° NE 21:49:28 10° E
Cosmos 1943 Rocket 2.8 21:40:22 10° SW 21:45:52 60° NW 21:51:28 10° NNE
STARLINK-1372 4.5 21:42:45 10° SSW 21:46:08 26° SE 21:49:30 10° E
Cosmos 1271 Rocket 2.8 21:42:54 12° S 21:46:31 63° E 21:50:28 10° NNE
STARLINK-1210 3.7 21:42:59 10° WNW 21:47:04 60° SSW 21:50:30 14° SE
Cosmos 1992 Rocket 4.0 21:43:18 10° S 21:48:26 66° ESE 21:53:38 10° NNE
Lacrosse 4 Rocket 4.0 21:45:42 10° NNW 21:48:31 16° NNE 21:51:18 10° ENE
STARLINK-1200 3.8 21:45:13 10° WNW 21:49:23 77° N 21:53:32 10° E
STARLINK-1378 4.4 21:47:05 10° SSW 21:50:32 28° SE 21:54:00 10° E
STARLINK-1219 3.8 21:48:00 10° WNW 21:52:04 57° SSW 21:55:19 15° SE
SL-4 R/B 2.3 21:48:51 10° WSW 21:53:37 75° SSE 21:58:28 10° E
STARLINK-1192 3.7 21:50:13 10° WNW 21:54:23 78° NNE 21:58:32 10° E
STARLINK-1379 4.3 21:51:27 10° SSW 21:54:58 30° SE 21:58:31 10° E
Cosmos 1242 Rocket 2.8 21:52:52 10° SSW 21:56:32 69° WNW 22:00:14 10° N
STARLINK-1211 3.8 21:52:58 10° WNW 21:57:02 54° SSW 22:00:06 17° SE
Cosmos 1707 2.8 21:55:20 15° S 21:58:26 63° E 22:02:17 10° NNE
STARLINK-1329 4.3 21:55:07 10° SSW 21:58:42 31° SE 22:02:18 10° E
STARLINK-29 2.8 21:56:01 10° WSW 21:59:15 73° SSE 22:02:28 10° ENE
STARLINK-1244 3.7 21:55:11 10° WNW 21:59:21 80° NNE 22:03:30 10° E
STARLINK-1245 3.9 21:57:56 10° WNW 22:01:59 51° SSW 22:04:51 18° SE
Cosmos 1455 Rocket 4.1 21:58:21 10° NNW 22:02:24 39° W 22:06:25 10° SSW
STARLINK-1362 4.2 21:59:31 10° SSW 22:03:10 33° SE 22:06:49 10° E
Cosmos 1758 3.7 21:59:27 10° NNW 22:03:29 63° W 22:06:46 15° S
ERS-1 Rocket 3.9 21:59:19 10° SSW 22:04:05 42° W 22:08:52 10° NNW
STARLINK-1138 3.7 22:00:09 10° WNW 22:04:19 82° NNE 22:08:29 10° ESE
Timation 2 Rocket 4.2 21:58:18 10° NNW 22:04:37 67° NE 22:09:46 15° SE
Cosmos 1656 Rocket 3.6 21:59:21 10° SSW 22:04:57 83° ESE 22:10:32 10° NNE
ATLAS 2AS CENTAUR R/B 3.0 21:57:00 10° SW 22:05:00 81° SE 22:12:56 10° NE
STARLINK-1233 4.0 22:02:56 10° WNW 22:06:57 48° SSW 22:09:39 19° SE
STARLINK-1373 4.1 22:03:59 10° SSW 22:07:40 35° SE 22:11:23 10° E
STARLINK-1143 3.6 22:05:09 10° WNW 22:09:19 85° NNE 22:13:29 10° ESE
Meteor 1-16 Rocket 4.2 22:06:12 10° N 22:11:41 73° ENE 22:15:41 18° SSE
STARLINK-1204 4.0 22:07:55 10° WNW 22:11:54 45° SSW 22:14:25 20° SSE
STARLINK-1390 4.0 22:08:27 10° SW 22:12:12 37° SE 22:15:57 10° ENE
ATLAS CENTAUR R/B 1.3 22:08:49 10° SW 22:13:10 88° SE 22:17:14 10° NE
STARLINK-1241 3.6 22:10:09 10° WNW 22:14:19 87° NNE 22:18:28 10° ESE
STARLINK-1320 3.2 22:11:41 10° SW 22:14:37 40° SSE 22:17:35 10° E
STARLINK-1322 3.2 22:12:01 10° SW 22:14:58 40° SSE 22:17:56 10° E
STARLINK-1324 3.2 22:12:20 10° SW 22:15:17 40° SSE 22:18:14 10° E
STARLINK-1294 3.2 22:12:40 10° SW 22:15:35 40° SSE 22:18:33 10° E
STARLINK-1261 3.2 22:13:01 10° SW 22:15:58 40° SSE 22:18:56 10° E
STARLINK-1325 3.2 22:13:22 10° SW 22:16:19 41° SSE 22:19:17 10° E
STARLINK-1333 3.2 22:13:44 10° SW 22:16:42 41° SSE 22:19:39 10° E
STARLINK-1238 4.1 22:12:55 10° WNW 22:16:52 43° SSW 22:19:12 21° SSE
STARLINK-1334 3.2 22:14:01 10° SW 22:16:58 41° SSE 22:19:57 10° E
S3M 4.0 22:10:52 10° N 22:17:05 84° W 22:22:10 16° S
STARLINK-1326 3.2 22:14:20 10° SW 22:17:17 41° SSE 22:20:16 10° E
STARLINK-1323 3.2 22:14:42 10° SW 22:17:40 41° SSE 22:20:39 10° E
STARLINK-1349 3.2 22:15:01 10° SW 22:17:58 42° SSE 22:20:57 10° E
STARLINK-1365 3.9 22:14:08 10° SW 22:17:59 41° SSE 22:21:51 10° ENE
STARLINK-1336 3.2 22:15:20 10° SW 22:18:17 42° SSE 22:21:17 10° E
SJ 16-02 3.4 22:14:58 10° N 22:18:19 20° NE 22:21:38 10° E
STARLINK-1331 3.2 22:15:42 10° SW 22:18:40 42° SSE 22:21:40 10° E
STARLINK-1344 3.2 22:16:00 10° SW 22:18:59 42° SSE 22:21:58 10° E
STARLINK-1239 3.6 22:15:08 10° WNW 22:19:18 90° NNW 22:23:28 10° ESE
STARLINK-1343 3.2 22:16:22 10° SW 22:19:21 42° SSE 22:22:20 10° E
STARLINK-1346 3.2 22:16:40 10° SW 22:19:39 43° SSE 22:22:40 10° ENE
STARLINK-1328 3.1 22:17:06 10° SW 22:20:04 43° SSE 22:23:03 10° E
STARLINK-1354 3.1 22:17:23 10° SW 22:20:21 43° SSE 22:23:21 10° ENE
STARLINK-1347 3.1 22:17:40 10° SW 22:20:39 43° SSE 22:23:38 10° ENE
STARLINK-1357 3.1 22:18:05 10° SW 22:21:04 43° SSE 22:24:04 10° ENE
STARLINK-1335 3.1 22:18:22 10° SW 22:21:21 44° SSE 22:24:21 10° ENE
Cosmos 2369 Rocket 3.3 22:16:11 10° SW 22:21:38 47° NW 22:27:06 10° NNE
STARLINK-1327 3.1 22:18:43 10° SW 22:21:43 44° SSE 22:24:42 10° ENE
STARLINK-1201 4.2 22:17:56 10° WNW 22:21:49 40° SSW 22:23:59 22° SSE
Cosmos 2315 Rocket 4.3 22:15:45 10° N 22:21:55 59° ENE 22:26:32 18° SSE
STARLINK-1340 3.1 22:19:01 10° SW 22:22:01 44° SSE 22:25:01 10° ENE
STARLINK-1356 3.1 22:19:24 10° SW 22:22:24 44° SSE 22:25:24 10° ENE
STARLINK-1345 3.1 22:19:42 10° SW 22:22:42 44° SSE 22:25:43 10° ENE
Cosmos 2227 Rocket 3.3 22:17:33 10° NNW 22:22:50 38° NE 22:28:06 10° ESE
STARLINK-1355 3.1 22:20:04 10° SW 22:23:03 45° SSE 22:26:04 10° ENE
STARLINK-1321 3.1 22:20:24 10° SW 22:23:23 45° SSE 22:26:25 10° ENE
BREEZE-M DEB (TANK) 4.2 22:19:29 10° SW 22:23:29 59° SSE 22:37:48 10° ENE
STARLINK-1358 3.1 22:20:47 10° SW 22:23:46 45° SSE 22:26:47 10° ENE
STARLINK-1332 3.1 22:21:04 10° SW 22:24:04 45° SSE 22:27:05 10° ENE
STARLINK-1240 3.6 22:20:05 10° WNW 22:24:15 87° SSW 22:28:23 10° ESE
STARLINK-1348 3.1 22:21:23 10° SW 22:24:24 46° SSE 22:27:25 10° ENE
STARLINK-1330 3.1 22:21:44 10° SW 22:24:44 46° SSE 22:27:45 10° ENE
STARLINK-1363 3.1 22:22:04 10° SW 22:25:04 46° SSE 22:28:05 10° ENE
STARLINK-1337 3.0 22:22:26 10° SW 22:25:27 46° SSE 22:28:27 10° ENE
STARLINK-1342 3.0 22:22:45 10° SW 22:25:45 47° SSE 22:28:46 10° ENE
STARLINK-1364 3.0 22:23:04 10° SW 22:26:06 47° SSE 22:29:07 10° ENE
STARLINK-1376 3.0 22:23:25 10° SW 22:26:26 47° SSE 22:29:27 10° ENE
STARLINK-1206 4.3 22:22:54 10° WNW 22:26:45 38° SW 22:28:45 23° SSE
STARLINK-1360 3.0 22:23:45 10° SW 22:26:45 47° SSE 22:29:48 10° ENE
STARLINK-1361 3.0 22:24:06 10° SW 22:27:07 47° SSE 22:30:08 10° ENE
STARLINK-1367 3.0 22:24:22 10° SW 22:27:23 48° SSE 22:30:27 10° ENE
STARLINK-1366 3.0 22:24:44 10° SW 22:27:46 48° SSE 22:30:48 10° ENE
STARLINK-1338 3.7 22:24:56 10° SW 22:28:44 46° SSE 22:32:34 10° ENE
STARLINK-1216 3.5 22:25:05 10° WNW 22:29:15 84° SSW 22:33:11 11° ESE
STARLINK-1205 4.4 22:27:54 10° W 22:31:42 35° SW 22:33:31 23° SSE
STARLINK-1237 3.5 22:30:04 10° WNW 22:34:13 81° SSW 22:37:58 12° ESE
Cosmos 1908 3.3 22:30:41 10° N 22:34:30 66° ENE 22:36:36 25° SSE
STARLINK-52 2.9 22:31:22 10° WSW 22:34:35 84° NNW 22:37:49 10° ENE
Cosmos 1777 Rocket 4.0 22:31:03 10° NNW 22:36:19 82° WSW 22:39:51 21° SSE
STARLINK-1218 4.5 22:32:55 10° W 22:36:40 33° SW 22:38:19 24° S
Cosmos 1536 Rocket 3.9 22:33:06 13° SSW 22:36:52 61° WNW 22:41:14 10° N
Cosmos 2084 3.6 22:32:51 11° SSW 22:37:03 59° SE 22:41:28 10° NE
STARLINK-1371 3.6 22:33:16 10° SW 22:37:07 50° SSE 22:40:58 10° ENE
STARLINK-1202 3.5 22:35:03 10° WNW 22:39:13 78° SSW 22:42:45 14° ESE
STARLINK-1341 3.6 22:37:33 10° SW 22:41:26 53° SSE 22:45:21 10° ENE
STARLINK-1203 3.5 22:39:50 10° WNW 22:44:00 75° SSW 22:47:23 15° ESE
KORONAS-FOTON 4.0 22:42:06 26° SSE 22:44:04 57° E 22:47:53 10° NNE
Terra 3.4 22:41:36 11° SSW 22:45:29 27° W 22:49:34 10° NW
In-Cosmos 22 4.1 22:41:25 17° SSW 22:45:35 87° WNW 22:50:57 10° NNE
STARLINK-1374 3.5 22:41:48 10° SW 22:45:43 56° SSE 22:49:38 10° ENE
Thor Agena Rocket 3.6 22:40:35 10° NNE 22:45:54 75° ESE 22:49:40 19° S
Cosmos 1726 3.0 22:43:27 10° NNW 22:46:59 41° W 22:49:12 20° SSW
Cosmos 1300 3.9 22:43:38 10° N 22:47:07 32° ENE 22:49:12 19° ESE
STARLINK-1246 3.5 22:45:02 10° WNW 22:49:09 72° SSW 22:52:19 17° ESE
Meteor 2-5 Rocket 4.1 22:46:11 21° SSE 22:49:41 50° E 22:55:10 10° NNE
STARLINK-1339 3.5 22:46:05 10° SW 22:50:01 59° SSE 22:53:57 10° ENE
CENTAUR R/B 4.5 22:45:40 10° WNW 22:52:09 27° WSW 22:58:21 12° SSW
STARLINK-1444 2.7 22:50:22 10° W 22:52:27 52° N 22:54:37 10° ENE
USA 215 3.5 22:46:00 10° ESE 22:52:31 71° NNE 22:59:02 10° WNW
Cosmos 2266 Rocket 4.0 22:47:46 17° SSW 22:52:38 83° W 22:58:43 10° N
STARLINK-1452 2.7 22:51:01 10° W 22:53:06 52° N 22:55:14 10° ENE
Cosmos 2292 Rocket 2.8 22:51:50 26° SSW 22:53:29 72° W 22:56:27 10° N
STARLINK-1392 2.7 22:51:53 10° W 22:53:54 51° N 22:55:59 10° ENE
STARLINK-1399 2.7 22:51:54 10° W 22:53:57 51° N 22:56:02 10° ENE
STARLINK-1393 2.7 22:51:57 10° W 22:53:59 51° N 22:56:04 10° ENE
STARLINK-1394 2.7 22:51:58 10° W 22:54:00 51° N 22:56:05 10° ENE
STARLINK-1395 2.7 22:52:03 10° W 22:54:03 50° N 22:56:07 10° ENE
STARLINK-1397 2.7 22:52:01 10° W 22:54:03 51° N 22:56:09 10° ENE
STARLINK-1396 2.7 22:52:02 10° W 22:54:03 51° N 22:56:09 10° ENE
STARLINK-1414 2.7 22:52:03 10° W 22:54:04 51° N 22:56:09 10° ENE
STARLINK-1408 2.7 22:52:06 10° W 22:54:07 51° N 22:56:12 10° ENE
STARLINK-1224 3.5 22:49:58 10° WNW 22:54:07 68° SSW 22:57:05 18° SE
STARLINK-1404 2.7 22:52:07 10° W 22:54:08 51° N 22:56:15 10° ENE
STARLINK-1416 2.7 22:52:08 10° W 22:54:09 51° N 22:56:15 10° ENE
STARLINK-1415 2.7 22:52:08 10° W 22:54:11 51° N 22:56:17 10° ENE
STARLINK-1450 2.7 22:52:09 10° W 22:54:12 51° N 22:56:19 10° ENE
STARLINK-1406 2.7 22:52:12 10° W 22:54:12 50° N 22:56:18 10° ENE
STARLINK-1401 2.7 22:52:11 10° W 22:54:13 51° N 22:56:20 10° ENE
STARLINK-1417 2.7 22:52:14 10° W 22:54:17 51° N 22:56:24 10° ENE
STARLINK-1402 2.7 22:52:15 10° W 22:54:18 51° N 22:56:25 10° ENE
STARLINK-1413 2.7 22:52:15 10° W 22:54:18 51° N 22:56:25 10° ENE
STARLINK-1419 2.7 22:52:16 10° W 22:54:19 51° N 22:56:24 10° ENE
STARLINK-1377 3.5 22:50:23 10° SW 22:54:20 62° SSE 22:58:18 10° ENE
STARLINK-1422 2.7 22:52:22 10° W 22:54:25 51° N 22:56:30 10° ENE
STARLINK-1453 2.7 22:52:22 10° W 22:54:25 51° N 22:56:32 10° ENE
STARLINK-1398 2.7 22:52:23 10° W 22:54:27 51° N 22:56:35 10° ENE
STARLINK-1420 2.7 22:52:25 10° W 22:54:28 51° N 22:56:35 10° ENE
STARLINK-1440 2.7 22:52:26 10° W 22:54:30 51° N 22:56:37 10° ENE
STARLINK-1436 (VISORSAT) 2.7 22:52:26 10° W 22:54:31 51° N 22:56:38 10° ENE
STARLINK-1460 2.7 22:52:28 10° W 22:54:31 51° N 22:56:38 10° ENE
STARLINK-1410 2.7 22:52:32 10° W 22:54:35 51° N 22:56:42 10° ENE
STARLINK-1423 2.7 22:52:33 10° W 22:54:35 51° N 22:56:42 10° ENE
STARLINK-1421 2.7 22:52:34 10° W 22:54:35 51° N 22:56:42 10° ENE
STARLINK-1400 2.7 22:52:33 10° W 22:54:35 51° N 22:56:43 10° ENE
STARLINK-1454 2.7 22:52:34 10° W 22:54:36 51° N 22:56:44 10° ENE
STARLINK-1458 2.7 22:52:37 10° W 22:54:39 51° N 22:56:45 10° ENE
STARLINK-1445 2.7 22:52:38 10° W 22:54:42 51° N 22:56:49 10° ENE
STARLINK-1407 2.7 22:52:41 10° W 22:54:44 51° N 22:56:51 10° ENE
STARLINK-1446 2.7 22:52:41 10° W 22:54:44 51° N 22:56:51 10° ENE
STARLINK-1405 2.7 22:52:44 10° W 22:54:45 50° N 22:56:49 10° ENE
STARLINK-1370 2.7 22:52:44 10° W 22:54:47 51° N 22:56:53 10° ENE
STARLINK-1456 2.7 22:52:45 10° W 22:54:48 51° N 22:56:54 10° ENE
STARLINK-1457 2.7 22:52:45 10° W 22:54:48 51° N 22:56:54 10° ENE
STARLINK-1451 2.7 22:52:45 10° W 22:54:48 51° N 22:56:54 10° ENE
STARLINK-1439 2.7 22:52:48 10° W 22:54:48 50° N 22:56:53 10° ENE
STARLINK-1409 2.7 22:52:46 10° W 22:54:48 51° N 22:56:55 10° ENE
STARLINK-1447 2.7 22:52:46 10° W 22:54:49 51° N 22:56:56 10° ENE
STARLINK-1455 2.7 22:52:46 10° W 22:54:49 51° N 22:56:56 10° ENE
STARLINK-1437 2.7 22:52:47 10° W 22:54:50 51° N 22:56:56 10° ENE
STARLINK-1441 2.7 22:52:48 10° W 22:54:51 51° N 22:56:58 10° ENE
STARLINK-1443 2.7 22:52:50 10° W 22:54:55 51° N 22:57:02 10° ENE
STARLINK-1351 2.7 22:52:52 10° W 22:54:56 51° N 22:57:03 10° ENE
STARLINK-1418 2.7 22:52:53 10° W 22:54:56 51° N 22:57:03 10° ENE
STARLINK-1403 2.7 22:52:53 10° W 22:54:56 51° N 22:57:04 10° ENE
STARLINK-1434 2.7 22:52:54 10° W 22:54:57 51° N 22:57:04 10° ENE
STARLINK-1442 2.7 22:52:54 10° W 22:54:57 51° N 22:57:04 10° ENE
STARLINK-1448 2.7 22:52:56 10° W 22:54:58 51° N 22:57:06 10° ENE
STARLINK-1433 2.7 22:52:56 10° W 22:54:59 51° N 22:57:06 10° ENE
STARLINK-1449 2.7 22:52:58 10° W 22:55:01 51° N 22:57:09 10° ENE
STARLINK-1438 2.7 22:53:01 10° W 22:55:04 51° N 22:57:10 10° ENE
STARLINK-1411 2.7 22:53:08 10° W 22:55:11 51° N 22:57:18 10° ENE
STARLINK-1412 2.7 22:53:08 10° W 22:55:11 51° N 22:57:19 10° ENE
Cosmos 1674 2.6 22:53:25 26° S 22:55:26 83° E 22:59:16 10° NNE
STARLINK-1353 3.4 22:54:40 10° WSW 22:58:39 65° SSE 23:02:37 10° ENE
STARLINK-1225 3.6 22:54:58 10° WNW 22:59:06 65° SSW 23:01:53 20° SE
Cosmos 1655 Rocket 4.5 22:54:05 11° SSW 22:59:57 58° WNW 23:06:11 10° N
ATLAS 3B R/B 3.5 22:54:57 10° NW 23:01:05 37° WSW 23:05:20 19° S
FALCON 9 DEB 3.1 22:58:37 10° WSW 23:02:03 82° NNW 23:05:31 10° ENE
STARLINK-60 3.4 22:59:34 10° W 23:02:44 62° N 23:05:53 10° E
STARLINK-1375 3.4 22:59:01 10° WSW 23:03:00 68° SSE 23:06:59 10° ENE
STARLINK-1230 3.6 22:59:57 10° WNW 23:04:03 62° SSW 23:06:38 21° SE
SeaSat 1 2.8 23:00:07 10° NE 23:04:54 47° ESE 23:07:35 24° S
Cosmos 1340 Rocket 4.3 23:01:45 10° NNW 23:05:18 29° W 23:07:46 16° SW
Cosmos 1606 Rocket 3.7 23:01:42 10° NNW 23:06:01 67° W 23:08:26 25° S
BREEZE M DEB (TANK) 1.7 23:04:35 10° W 23:06:47 49° SSW 23:06:47 49° SSW
STARLINK-1350 3.4 23:03:19 10° WSW 23:07:18 71° SSE 23:11:19 10° ENE
Cosmos 2058 Rocket 3.2 23:02:56 10° N 23:07:24 70° ENE 23:09:53 26° SSE
STARLINK-1243 3.6 23:04:57 10° WNW 23:09:02 58° SSW 23:11:27 23° SE
STARLINK-1352 3.4 23:07:36 10° WSW 23:11:36 74° SSE 23:15:36 10° ENE
Cosmos 1980 Rocket 4.3 23:10:59 10° ESE 23:12:35 11° E 23:14:12 10° ENE
STARLINK-1236 3.7 23:09:55 10° WNW 23:13:59 55° SSW 23:16:12 25° SE
STARLINK-1368 3.4 23:12:06 10° WSW 23:16:07 77° SSE 23:20:08 10° ENE
COSMOS 2455 3.5 23:10:37 10° SW 23:16:32 57° NW 23:22:30 10° NNE
ALOS 2 2.6 23:14:35 27° SSE 23:16:58 86° WSW 23:21:23 10° NNW
ERBS 2.2 23:17:02 10° WNW 23:20:22 89° NNE 23:22:15 24° ESE
Cosmos 1953 4.4 23:17:39 10° NW 23:20:30 19° W 23:23:02 11° SW
STARLINK-1369 3.4 23:16:30 10° WSW 23:20:31 80° SSE 23:24:33 10° ENE
RESURS DK-1 2.9 23:18:29 12° SW 23:22:14 56° NW 23:26:21 10° NNE
Aureole 3 4.5 23:19:50 10° NW 23:22:15 22° W 23:23:23 18° WSW
Cosmos 1626 2.2 23:20:51 32° SSE 23:22:22 63° E 23:26:03 10° NNE
Cosmos 1937 Rocket 4.4 23:17:31 10° NNW 23:22:34 45° ENE 23:27:01 13° SE
Cosmos 1455 4.3 23:19:53 10° NNE 23:22:37 19° ENE 23:25:11 11° ESE
STARLINK-1269 3.8 23:19:54 10° WNW 23:23:55 49° SSW 23:25:45 28° SSE
Nimbus 7 Rocket 4.4 23:18:16 10° NNE 23:24:22 81° ESE 23:28:31 22° SSW
Cosmos 2263 Rocket 4.4 23:20:09 10° NNW 23:24:34 23° NE 23:28:56 10° E
STARLINK-1372 3.4 23:20:49 10° WSW 23:24:49 83° SSE 23:28:52 10° ENE
NOSS 3-4 (A) 4.5 23:22:05 10° WSW 23:27:56 49° NNW 23:34:20 10° NE
NOSS 3-4 (C) 4.5 23:22:10 10° WSW 23:28:02 49° NNW 23:34:26 10° NE
Lacrosse 4 Rocket 1.8 23:23:47 10° NNW 23:28:07 62° NE 23:31:03 19° SE
Cosmos 2228 3.8 23:24:41 10° NNW 23:28:40 40° W 23:30:53 22° SSW
STARLINK-1200 3.9 23:24:53 10° WNW 23:28:52 46° SSW 23:30:32 29° SSE
STARLINK-1378 3.4 23:25:20 10° WSW 23:29:22 86° SSE 23:33:24 10° ENE
Cosmos 2297 Rocket 2.2 23:23:43 10° NNW 23:29:24 79° WSW 23:32:59 23° SSE
Meteor 1-24 Rocket 3.6 23:27:06 24° S 23:30:25 78° E 23:36:02 10° NNE
Cosmos 1656 4.1 23:27:54 24° S 23:30:55 46° ESE 23:36:14 10° NE
Cosmos 1898 Rocket 3.8 23:26:08 10° NNW 23:31:28 67° ENE 23:35:13 19° SE
Cosmos 921 Rocket 3.0 23:29:32 24° SSW 23:32:05 83° WNW 23:36:32 10° NNE
Cosmos 220 Rocket 4.0 23:29:35 24° SSW 23:32:14 90° WNW 23:36:43 10° NNE
Cosmos 2219 3.3 23:27:40 10° NW 23:33:16 63° WSW 23:36:33 25° S
SL-4 R/B 1.7 23:33:28 32° W 23:33:28 32° W 23:35:20 10° NNW
SL-4 R/B 2.4 23:28:35 10° W 23:33:27 87° N 23:38:17 10° E
CZ-4C R/B 2.9 23:31:35 25° SSE 23:33:47 35° ESE 23:39:08 10° NE
STARLINK-1192 4.0 23:29:54 10° WNW 23:33:51 43° SSW 23:35:20 30° SSE
STARLINK-1379 3.5 23:29:48 10° WSW 23:33:51 88° SSE 23:37:54 10° ENE
STARLINK-29 3.4 23:32:16 10° W 23:35:28 62° N 23:38:39 10° E
Meteor 2-14 Rocket 4.4 23:31:51 23° S 23:35:52 84° E 23:42:03 10° NNE
STARLINK-1329 3.5 23:33:34 10° WSW 23:37:36 89° NW 23:41:40 10° ENE
STARLINK-1244 4.1 23:34:52 10° WNW 23:38:47 41° SSW 23:40:05 31° S
Meteor 2-21 Rocket 4.5 23:36:06 23° S 23:40:04 78° E 23:46:18 10° NNE
Cosmos 990 Rocket 4.0 23:35:52 10° NNW 23:41:10 81° ENE 23:44:36 22° SSE
STARLINK-1362 3.5 23:38:05 10° WSW 23:42:08 87° NNW 23:46:12 10° ENE
ATLAS CENTAUR R/B 1.1 23:40:46 10° WNW 23:42:52 54° SSW 23:43:35 40° SSE
STARLINK-1138 4.1 23:39:52 10° WNW 23:43:44 38° SSW 23:44:52 31° S
Cosmos 2082 3.8 23:38:12 10° NNW 23:43:53 75° ENE 23:48:10 18° SE
Cosmos 192 4.4 23:43:01 26° S 23:45:43 66° ESE 23:50:40 10° NNE
STARLINK-1373 3.5 23:42:37 10° WSW 23:46:41 85° NNW 23:50:45 10° ENE
STARLINK-1143 4.2 23:44:52 10° W 23:48:42 36° SW 23:49:39 31° S
Helios 1A 3.0 23:47:33 30° S 23:49:33 72° WSW 23:53:45 10° NNW
Okean 1-7 Rocket 3.8 23:47:20 25° SSW 23:49:55 67° WNW 23:54:29 10° N
STARLINK-1320 3.1 23:47:14 10° W 23:50:21 71° N 23:53:29 10° ENE
STARLINK-1322 3.1 23:47:35 10° W 23:50:42 70° N 23:53:49 10° ENE
STARLINK-1324 3.1 23:47:54 10° W 23:51:01 70° NNW 23:54:08 10° ENE
EO 1 Delta rocket 4.0 23:45:50 10° NNE 23:51:13 77° E 23:53:51 27° S
STARLINK-1390 3.6 23:47:11 10° WSW 23:51:14 83° NNW 23:55:18 10° ENE
STARLINK-1294 3.1 23:48:13 10° W 23:51:20 70° N 23:54:28 10° ENE
STARLINK-1261 3.1 23:48:35 10° W 23:51:43 70° N 23:54:50 10° ENE
Meteor 2-1 Rocket 4.3 23:46:20 10° N 23:51:54 72° ENE 23:55:36 22° SSE
STARLINK-1325 3.1 23:48:57 10° W 23:52:04 70° N 23:55:11 10° ENE
STARLINK-1333 3.1 23:49:19 10° W 23:52:26 70° N 23:55:33 10° ENE
ATLAS CENTAUR R/B 3.8 23:49:11 10° W 23:52:32 23° NNW 23:55:44 10° NNE
STARLINK-1334 3.1 23:49:36 10° W 23:52:43 70° N 23:55:51 10° ENE
STARLINK-1326 3.1 23:49:55 10° W 23:53:02 70° N 23:56:10 10° ENE
STARLINK-1323 3.1 23:50:19 10° W 23:53:26 69° N 23:56:33 10° ENE
STARLINK-1241 4.3 23:49:54 10° W 23:53:40 34° SW 23:54:27 31° S
STARLINK-1349 3.1 23:50:36 10° W 23:53:43 69° N 23:56:50 10° ENE
STARLINK-1336 3.1 23:50:56 10° W 23:54:02 69° N 23:57:10 10° ENE
Cosmos 1892 Rocket 4.2 23:51:40 21° SW 23:54:17 49° WNW 23:58:32 10° N
STARLINK-1331 3.1 23:51:19 10° W 23:54:26 69° N 23:57:33 10° ENE
STARLINK-1344 3.1 23:51:37 10° W 23:54:44 69° N 23:57:51 10° ENE
STARLINK-1343 3.1 23:51:59 10° W 23:55:06 69° N 23:58:14 10° ENE
STARLINK-1346 3.2 23:52:16 10° W 23:55:24 69° N 23:58:33 10° ENE
STARLINK-1328 3.1 23:52:43 10° W 23:55:50 69° N 23:58:57 10° ENE
STARLINK-1354 3.1 23:53:01 10° W 23:56:07 68° N 23:59:15 10° ENE
STARLINK-1347 3.1 23:53:17 10° W 23:56:24 68° N 23:59:32 10° ENE
Cosmos 1437 2.8 23:55:39 38° SW 23:56:35 61° WNW 23:59:35 10° N
STARLINK-1357 3.2 23:53:43 10° W 23:56:50 68° N 23:59:57 10° ENE
